FW6662 Weather Reports


Display with metric or nautical units.
time (UTC)temp
F
wind
direction
speed
MPH
gust
MPH
rain 1hr
in
rain 24hr
in
rain mn
in
humidity
%
barometer
mb
20260831153525 68 142 0.0 1.0 0.00 0.04 0.04 95 1022.5
20260831153025 68 142 0.0 1.0 0.00 0.04 0.04 94 1022.5
20260831152504 68 142 0.0 1.0 0.00 0.04 0.04 94 1022.5
20260831152004 68 142 0.0 1.0 0.00 0.04 0.04 95 1022.5
20260831151504 68 0 0.0 0.0 0.00 0.04 0.04 95 1022.5
20260831151025 68 142 0.0 1.0 0.00 0.04 0.04 94 1022.4
20260831150504 68 142 0.0 1.0 0.00 0.04 0.04 94 1022.4
20260831150004 68 142 0.0 1.0 0.00 0.04 0.04 94 1022.5
20260831145525 68 142 0.0 1.0 0.00 0.04 0.04 94 1022.4
20260831145004 68 0 0.0 0.0 0.00 0.04 0.04 94 1022.3
20260831144525 68 0 0.0 0.0 0.00 0.04 0.04 93 1022.4
20260831144004 68 0 0.0 0.0 0.00 0.04 0.04 93 1022.4
20260831143504 68 0 0.0 0.0 0.00 0.04 0.04 94 1022.5
20260831143004 68 0 0.0 0.0 0.00 0.04 0.04 93 1022.4
20260831142504 68 0 0.0 0.0 0.00 0.04 0.04 93 1022.4
20260831142004 68 0 0.0 0.0 0.00 0.04 0.04 94 1022.3
20260831141504 68 0 0.0 0.0 0.00 0.04 0.04 95 1022.4
20260831141004 67 142 0.0 1.0 0.00 0.04 0.04 95 1022.3
20260831140505 67 142 0.0 3.0 0.00 0.04 0.04 95 1022.3
20260831140004 67 142 0.0 3.0 0.00 0.04 0.04 94 1022.5
20260831135504 67 142 0.0 1.0 0.00 0.04 0.04 95 1022.5
20260831135025 67 142 0.0 1.0 0.00 0.04 0.04 96 1022.5
20260831134504 67 0 0.0 0.0 0.00 0.04 0.04 97 1022.5
20260831134025 67 142 0.0 1.0 0.00 0.04 0.04 97 1022.4
20260831133504 67 137 0.0 1.0 0.00 0.04 0.04 97 1022.4
20260831133004 67 164 0.0 3.0 0.00 0.04 0.04 97 1022.5
20260831132504 66 163 0.0 3.0 0.00 0.04 0.04 97 1022.5
20260831132004 66 176 1.0 3.0 0.00 0.04 0.04 97 1022.3
20260831131504 66 206 0.0 3.0 0.00 0.04 0.04 98 1022.4
20260831131004 66 246 0.0 1.0 0.00 0.04 0.04 97 1022.5
20260831130504 66 246 0.0 1.0 0.00 0.04 0.04 98 1022.5
20260831130004 66 248 0.0 1.0 0.00 0.04 0.04 98 1022.5
20260831125504 66 254 0.0 1.0 0.00 0.04 0.04 98 1022.6
20260831125004 66 204 1.0 3.0 0.00 0.04 0.04 98 1022.6
20260831124524 65 206 1.0 3.0 0.00 0.04 0.04 98 1022.5
20260831124004 65 233 0.0 3.0 0.00 0.04 0.04 99 1022.5
20260831123504 66 233 0.0 1.0 0.00 0.04 0.04 99 1022.5
20260831123003 66 0 0.0 0.0 0.00 0.04 0.04 99 1022.5
20260831122504 65 0 0.0 0.0 0.00 0.04 0.04 99 1022.4
20260831122004 65 0 0.0 0.0 0.00 0.04 0.04 99 1022.6
20260831121504 65 0 0.0 0.0 0.00 0.04 0.04 99 1022.5
20260831121004 65 0 0.0 0.0 0.00 0.04 0.04 99 1022.4
20260831120504 65 0 0.0 0.0 0.00 0.04 0.04 99 1022.4
20260831120004 65 0 0.0 0.0 0.00 0.04 0.04 99 1022.4
20260831115504 64 0 0.0 0.0 0.00 0.04 0.04 99 1022.4
20260831115004 64 0 0.0 0.0 0.00 0.04 0.04 99 1022.5
20260831114503 64 0 0.0 0.0 0.00 0.04 0.04 99 1022.7
20260831114004 64 0 0.0 0.0 0.00 0.04 0.04 99 1022.7
20260831113503 64 0 0.0 0.0 0.00 0.04 0.04 99 1022.7
20260831113004 64 0 0.0 0.0 0.00 0.04 0.04 99 1022.8
20260831112503 64 0 0.0 0.0 0.00 0.04 0.04 99 1022.4
20260831112003 64 0 0.0 0.0 0.00 0.04 0.04 99 1022.4
20260831111503 64 0 0.0 0.0 0.00 0.04 0.04 99 1022.5
20260831111004 64 0 0.0 0.0 0.00 0.04 0.04 99 1022.4
20260831110524 64 233 0.0 1.0 0.00 0.04 0.04 99 1022.4
20260831110004 64 233 0.0 1.0 0.00 0.04 0.04 99 1022.3
20260831105524 64 233 0.0 1.0 0.00 0.04 0.04 99 1022.1
20260831105003 64 233 0.0 1.0 0.00 0.04 0.04 99 1021.8
20260831104524 64 233 0.0 1.0 0.00 0.04 0.04 99 1022.0
20260831104003 64 233 0.0 1.0 0.00 0.04 0.04 99 1022.0
20260831103503 64 0 0.0 0.0 0.00 0.04 0.04 99 1022.0
20260831103004 64 0 0.0 0.0 0.00 0.04 0.04 99 1021.9
20260831102503 64 233 0.0 1.0 0.00 0.04 0.04 99 1021.9
20260831102003 64 233 0.0 3.0 0.00 0.04 0.04 99 1021.9
20260831101504 64 233 0.0 3.0 0.00 0.04 0.04 99 1021.7
20260831101003 64 233 0.0 1.0 0.00 0.04 0.04 99 1021.9
20260831100503 64 233 0.0 1.0 0.00 0.04 0.04 99 1021.8
20260831100003 64 0 0.0 0.0 0.00 0.04 0.04 99 1021.8
20260831095524 64 0 0.0 0.0 0.00 0.04 0.04 99 1021.9
20260831095024 64 0 0.0 0.0 0.00 0.04 0.04 99 1021.9
20260831094503 64 0 0.0 0.0 0.00 0.04 0.04 99 1021.8
20260831094003 64 0 0.0 0.0 0.00 0.04 0.04 99 1021.7
20260831093503 64 233 0.0 1.0 0.00 0.04 0.04 99 1021.8
20260831093003 64 233 0.0 1.0 0.00 0.04 0.04 99 1021.8
20260831092503 64 233 0.0 1.0 0.00 0.04 0.04 98 1021.9
20260831092024 64 0 0.0 0.0 0.00 0.04 0.04 98 1022.0
20260831091524 64 0 0.0 0.0 0.00 0.04 0.04 99 1021.9
20260831091024 64 233 0.0 1.0 0.00 0.04 0.04 98 1022.0
20260831090503 64 233 0.0 1.0 0.00 0.04 0.04 98 1022.0
20260831090003 64 233 0.0 1.0 0.00 0.04 0.04 98 1021.9
20260831085503 64 0 0.0 0.0 0.00 0.04 0.04 98 1021.8
20260831085024 64 0 0.0 0.0 0.00 0.04 0.04 98 1021.8
20260831084503 64 0 0.0 0.0 0.00 0.04 0.04 98 1021.7
20260831084003 64 0 0.0 0.0 0.00 0.04 0.04 98 1021.7
20260831083503 64 0 0.0 0.0 0.00 0.04 0.04 98 1021.7
20260831083003 64 233 0.0 1.0 0.00 0.04 0.04 98 1021.8
20260831082503 64 233 0.0 1.0 0.00 0.04 0.04 98 1021.8
20260831082003 64 233 0.0 1.0 0.00 0.04 0.04 98 1021.8
20260831081503 64 0 0.0 0.0 0.00 0.04 0.04 98 1021.8
20260831081003 64 0 0.0 0.0 0.00 0.04 0.04 98 1021.6
20260831080503 64 0 0.0 0.0 0.00 0.04 0.04 98 1021.6
20260831080024 64 0 0.0 0.0 0.00 0.04 0.04 98 1021.6
20260831075503 64 0 0.0 0.0 0.00 0.04 0.04 98 1021.6
20260831075003 64 233 0.0 1.0 0.00 0.04 0.04 98 1021.5
20260831074503 64 233 0.0 3.0 0.00 0.04 0.04 98 1021.6
20260831074003 64 233 0.0 3.0 0.00 0.04 0.04 98 1021.7
20260831073503 64 233 0.0 1.0 0.00 0.04 0.04 98 1021.6
20260831073003 64 233 0.0 1.0 0.00 0.04 0.04 98 1021.6
20260831072503 64 233 0.0 1.0 0.00 0.04 0.04 98 1021.5
20260831072003 64 233 0.0 1.0 0.00 0.04 0.04 98 1021.5
20260831071503 64 233 0.0 1.0 0.00 0.04 0.04 98 1021.5
20260831071003 64 233 0.0 1.0 0.00 0.04 0.04 98 1021.6
20260831070503 64 233 0.0 1.0 0.00 0.04 0.04 98 1021.7
20260831070003 64 233 0.0 1.0 0.00 0.04 0.04 98 1021.6
20260831065524 64 0 0.0 0.0 0.00 0.04 0.04 98 1021.8
20260831065024 64 233 0.0 1.0 0.00 0.04 0.04 98 1021.8
20260831064503 64 233 0.0 1.0 0.00 0.04 0.04 98 1021.8
20260831064003 64 233 0.0 1.0 0.01 0.04 0.04 98 1022.0
20260831063503 64 0 0.0 0.0 0.01 0.04 0.04 98 1021.9
20260831063003 64 0 0.0 0.0 0.01 0.04 0.04 98 1021.8
20260831062524 64 0 0.0 0.0 0.01 0.04 0.04 98 1021.9
20260831062003 64 233 0.0 1.0 0.01 0.04 0.04 98 1022.0
20260831061524 64 233 0.0 1.0 0.01 0.04 0.04 98 1022.0
20260831061003 65 233 0.0 1.0 0.01 0.04 0.04 98 1022.0
20260831060503 65 233 1.0 3.0 0.01 0.04 0.04 98 1022.1
20260831060003 65 235 0.0 3.0 0.01 0.04 0.04 98 1022.2
20260831055503 65 241 0.0 1.0 0.01 0.04 0.04 98 1022.2
20260831055003 65 240 0.0 3.0 0.01 0.04 0.04 98 1022.2
20260831054503 65 241 0.0 3.0 0.01 0.04 0.04 97 1022.1
20260831054024 65 271 0.0 3.0 0.00 0.03 0.03 97 1022.2
20260831053503 65 254 1.0 4.0 0.00 0.03 0.03 97 1022.3
20260831053024 65 236 1.0 4.0 0.00 0.03 0.03 97 1022.3
20260831052503 66 131 1.0 4.0 0.00 0.03 0.03 97 1022.4
20260831052003 66 53 1.0 4.0 0.00 0.03 0.03 97 1022.4
20260831051503 66 59 0.0 4.0 0.01 0.03 0.03 98 1022.3
20260831051003 66 164 0.0 1.0 0.01 0.03 0.03 98 1022.1
20260831050503 66 0 0.0 0.0 0.03 0.03 0.03 98 1022.2
20260831050003 66 0 0.0 0.0 0.03 0.03 0.03 98 1022.2
20260831045503 66 0 0.0 0.0 0.03 0.03 0.03 98 1022.2
20260831045003 66 0 0.0 0.0 0.03 0.03 0.03 98 1022.2
20260831044503 66 0 0.0 0.0 0.03 0.03 0.03 98 1022.2
20260831044003 66 0 0.0 0.0 0.03 0.03 0.03 98 1022.1
20260831043503 66 0 0.0 0.0 0.03 0.03 0.03 98 1022.2
20260831043024 66 0 0.0 0.0 0.03 0.03 0.03 98 1022.1
20260831042524 66 0 0.0 0.0 0.03 0.03 0.03 98 1022.2
20260831042003 66 0 0.0 0.0 0.03 0.03 0.03 97 1022.3
20260831041503 66 0 0.0 0.0 0.02 0.02 0.02 97 1022.3
20260831041003 66 0 0.0 0.0 0.02 0.02 0.02 97 1022.2
20260831040503 66 0 0.0 0.0 0.00 0.00 0.00 97 1022.3
20260831040004 66 0 0.0 0.0 0.00 0.00 0.00 97 1022.3
20260831035505 66 0 0.0 0.0 0.00 0.00 0.00 97 1022.3
20260831035005 66 0 0.0 0.0 0.00 0.00 0.00 97 1022.2
20260831034505 66 0 0.0 0.0 0.00 0.00 0.00 97 1022.1
20260831034005 66 0 0.0 0.0 0.00 0.00 0.00 97 1022.1
20260831033505 66 0 0.0 0.0 0.00 0.00 0.00 97 1022.1
20260831033005 66 0 0.0 0.0 0.00 0.00 0.00 97 1022.0
20260831032505 66 0 0.0 0.0 0.00 0.00 0.00 97 1022.0
20260831032005 66 0 0.0 0.0 0.00 0.00 0.00 97 1022.2
20260831031505 66 0 0.0 0.0 0.00 0.00 0.00 97 1022.1
20260831031026 66 0 0.0 0.0 0.00 0.00 0.00 97 1022.4
20260831030505 66 0 0.0 0.0 0.00 0.00 0.00 97 1022.2
20260831030005 66 0 0.0 0.0 0.00 0.00 0.00 97 1022.4
20260831025505 66 0 0.0 0.0 0.00 0.00 0.00 97 1022.4
20260831025005 66 0 0.0 0.0 0.00 0.00 0.00 97 1022.3
20260831024505 66 0 0.0 0.0 0.00 0.00 0.00 97 1022.3
20260831024005 66 0 0.0 0.0 0.00 0.00 0.00 97 1022.3
20260831023505 66 0 0.0 0.0 0.00 0.00 0.00 97 1022.3
20260831023005 66 0 0.0 0.0 0.00 0.00 0.00 97 1022.2
20260831022505 66 0 0.0 0.0 0.00 0.00 0.00 97 1022.3
20260831022005 66 0 0.0 0.0 0.00 0.00 0.00 97 1022.3
20260831021505 66 0 0.0 0.0 0.00 0.00 0.00 97 1022.3
20260831021005 66 0 0.0 0.0 0.00 0.00 0.00 97 1022.4
20260831020526 66 0 0.0 0.0 0.00 0.00 0.00 97 1022.4
20260831020026 66 0 0.0 0.0 0.00 0.00 0.00 97 1022.5
20260831015505 66 0 0.0 0.0 0.00 0.00 0.00 97 1022.5
20260831015005 66 0 0.0 0.0 0.00 0.00 0.00 97 1022.3
20260831014505 66 0 0.0 0.0 0.00 0.00 0.00 97 1022.3
20260831014005 66 0 0.0 0.0 0.00 0.00 0.00 97 1022.4
20260831013504 66 0 0.0 0.0 0.00 0.00 0.00 96 1022.4
20260831013004 66 0 0.0 0.0 0.00 0.00 0.00 96 1022.3
20260831012526 66 0 0.0 0.0 0.00 0.00 0.00 96 1022.2
20260831012005 66 0 0.0 0.0 0.00 0.00 0.00 96 1022.0
20260831011505 66 0 0.0 0.0 0.00 0.00 0.00 96 1022.1
20260831011005 67 0 0.0 0.0 0.00 0.00 0.00 96 1022.0
20260831010504 67 0 0.0 0.0 0.00 0.00 0.00 96 1022.0
20260831010025 67 0 0.0 0.0 0.00 0.00 0.00 96 1022.0
20260831005504 67 0 0.0 0.0 0.00 0.00 0.00 96 1021.9
20260831005005 67 0 0.0 0.0 0.00 0.00 0.00 96 1021.7
20260831004504 67 0 0.0 0.0 0.00 0.00 0.00 96 1021.7
20260831004026 67 0 0.0 0.0 0.00 0.00 0.00 96 1021.7
20260831003504 67 0 0.0 0.0 0.00 0.00 0.00 96 1021.5
20260831003005 67 0 0.0 0.0 0.00 0.00 0.00 96 1021.6
20260831002505 67 0 0.0 0.0 0.00 0.00 0.00 96 1021.4
20260831002004 67 0 0.0 0.0 0.00 0.00 0.00 96 1021.3
20260831001504 67 0 0.0 0.0 0.00 0.00 0.00 96 1021.1
20260831001005 67 0 0.0 0.0 0.00 0.00 0.00 95 1021.3
20260831000504 67 0 0.0 0.0 0.00 0.00 0.00 95 1021.2
20260831000004 67 0 0.0 0.0 0.00 0.00 0.00 95 1021.1
20260830235505 67 0 0.0 0.0 0.00 0.00 0.00 95 1021.0
20260830235005 67 0 0.0 0.0 0.00 0.00 0.00 95 1021.0
20260830234504 68 0 0.0 0.0 0.00 0.00 0.00 95 1021.2
20260830234026 68 0 0.0 0.0 0.00 0.00 0.00 95 1021.2
20260830233504 68 0 0.0 0.0 0.00 0.00 0.00 95 1021.0
20260830233005 68 0 0.0 0.0 0.00 0.00 0.00 95 1021.0
20260830232504 68 0 0.0 0.0 0.00 0.00 0.00 95 1021.0
20260830232004 68 0 0.0 0.0 0.00 0.00 0.00 95 1020.9
20260830231504 68 0 0.0 0.0 0.00 0.00 0.00 95 1021.1
20260830231004 68 0 0.0 0.0 0.00 0.00 0.00 95 1021.1
20260830230504 68 0 0.0 0.0 0.00 0.00 0.00 94 1021.1
20260830230004 68 0 0.0 0.0 0.00 0.00 0.00 94 1021.1
20260830225505 68 0 0.0 0.0 0.00 0.00 0.00 94 1021.2
20260830225025 68 0 0.0 0.0 0.00 0.00 0.00 94 1021.3
20260830224504 68 0 0.0 0.0 0.00 0.00 0.00 94 1021.1
20260830224025 68 0 0.0 0.0 0.00 0.00 0.00 93 1021.2
20260830223504 69 164 0.0 1.0 0.00 0.00 0.00 93 1021.0
20260830223004 69 164 0.0 3.0 0.00 0.00 0.00 92 1021.0
20260830222504 69 174 1.0 4.0 0.00 0.00 0.00 92 1021.1
20260830222004 70 184 0.0 4.0 0.00 0.00 0.00 91 1021.2
20260830221504 70 166 0.0 1.0 0.00 0.00 0.00 90 1021.3
20260830221004 70 196 1.0 6.0 0.00 0.00 0.00 90 1021.2
20260830220525 70 229 1.0 7.0 0.00 0.00 0.00 89 1021.2
20260830220004 71 272 3.0 7.0 0.00 0.00 0.00 88 1021.1
20260830215504 71 322 3.0 7.0 0.00 0.00 0.00 87 1021.2
20260830215004 71 312 3.0 13.0 0.00 0.00 0.00 87 1021.2
20260830214504 72 314 3.0 13.0 0.00 0.00 0.00 87 1021.1
20260830214005 72 309 3.0 7.0 0.00 0.00 0.00 85 1020.9
20260830213504 72 284 0.0 7.0 0.00 0.00 0.00 88 1020.7
20260830213025 73 0 0.0 0.0 0.00 0.00 0.00 87 1020.7
20260830212504 73 0 0.0 0.0 0.00 0.00 0.00 86 1020.5
20260830212004 73 0 0.0 0.0 0.00 0.00 0.00 85 1020.5
20260830211504 74 0 0.0 0.0 0.00 0.00 0.00 86 1020.4
20260830211004 74 0 0.0 0.0 0.00 0.00 0.00 85 1020.4
20260830210504 74 0 0.0 0.0 0.00 0.00 0.00 86 1020.3
20260830210025 74 0 0.0 0.0 0.00 0.00 0.00 85 1020.3
20260830205525 74 0 0.0 0.0 0.00 0.00 0.00 85 1020.3
20260830205004 74 0 0.0 0.0 0.00 0.00 0.00 83 1020.2
20260830204504 74 168 0.0 1.0 0.00 0.00 0.00 85 1020.4
20260830204004 74 160 0.0 1.0 0.00 0.00 0.00 85 1020.5
20260830203504 74 153 0.0 3.0 0.00 0.00 0.00 85 1020.3
20260830203004 74 177 0.0 3.0 0.00 0.00 0.00 83 1020.3
20260830202504 74 213 0.0 3.0 0.00 0.00 0.00 84 1020.3
20260830202004 74 213 0.0 3.0 0.00 0.00 0.00 84 1020.4
20260830201504 74 212 0.0 3.0 0.00 0.00 0.00 84 1020.3
20260830201004 74 216 0.0 3.0 0.00 0.00 0.00 84 1020.4
20260830200504 74 216 0.0 3.0 0.00 0.00 0.00 83 1020.3
20260830200025 74 213 0.0 3.0 0.00 0.00 0.00 86 1020.2
20260830195504 74 164 0.0 3.0 0.00 0.00 0.00 83 1020.4
20260830195004 75 158 0.0 3.0 0.00 0.00 0.00 83 1020.4
20260830194504 75 140 0.0 1.0 0.00 0.00 0.00 84 1020.5
20260830194004 75 140 0.0 1.0 0.00 0.00 0.00 83 1020.6
20260830193504 75 148 0.0 3.0 0.00 0.00 0.00 82 1020.6
20260830193025 75 154 0.0 3.0 0.00 0.00 0.00 83 1020.7
20260830192504 75 175 0.0 3.0 0.00 0.00 0.00 84 1020.6
20260830192004 75 171 0.0 3.0 0.00 0.00 0.00 83 1020.8
20260830191504 75 163 0.0 3.0 0.00 0.00 0.00 81 1020.9
20260830191025 75 161 0.0 3.0 0.00 0.00 0.00 84 1020.8
20260830190504 75 155 0.0 3.0 0.00 0.00 0.00 84 1020.8
20260830190004 75 147 0.0 3.0 0.00 0.00 0.00 81 1021.0
20260830185526 75 150 1.0 4.0 0.00 0.00 0.00 82 1021.1
20260830185004 75 164 1.0 6.0 0.00 0.00 0.00 83 1021.1
20260830184504 75 168 1.0 6.0 0.00 0.00 0.00 82 1021.1
20260830184025 74 159 1.0 6.0 0.00 0.00 0.00 81 1021.1
20260830183504 74 156 1.0 6.0 0.00 0.00 0.00 82 1021.2
20260830183004 74 156 0.0 4.0 0.00 0.00 0.00 82 1021.3
20260830182525 74 154 0.0 4.0 0.00 0.00 0.00 83 1021.2
20260830182004 74 181 0.0 1.0 0.00 0.00 0.00 84 1021.4
20260830181504 74 170 0.0 3.0 0.00 0.00 0.00 83 1021.5
20260830181004 74 150 0.0 3.0 0.00 0.00 0.00 83 1021.5
20260830180504 74 153 1.0 4.0 0.00 0.00 0.00 81 1021.5
20260830180004 75 156 1.0 4.0 0.00 0.00 0.00 81 1021.5
20260830175504 75 157 1.0 4.0 0.00 0.00 0.00 80 1021.6
20260830175025 75 170 1.0 6.0 0.00 0.00 0.00 79 1021.6
20260830174504 75 189 1.0 6.0 0.00 0.00 0.00 80 1021.8
20260830174004 76 185 1.0 6.0 0.00 0.00 0.00 79 1021.6
20260830173504 76 182 1.0 6.0 0.00 0.00 0.00 80 1021.6
20260830173004 76 179 1.0 4.0 0.00 0.00 0.00 80 1021.6
20260830172504 76 164 1.0 4.0 0.00 0.00 0.00 79 1021.5
20260830172004 76 153 1.0 4.0 0.00 0.00 0.00 77 1021.5
20260830171504 76 156 1.0 4.0 0.00 0.00 0.00 76 1021.6
20260830171004 76 164 3.0 7.0 0.00 0.00 0.00 77 1021.7
20260830170525 77 166 3.0 7.0 0.00 0.00 0.00 75 1021.6
20260830170004 76 185 1.0 7.0 0.00 0.00 0.00 80 1021.6
20260830165504 76 196 1.0 3.0 0.00 0.00 0.00 79 1021.8
20260830165025 75 177 1.0 3.0 0.00 0.00 0.00 78 1022.0
20260830164504 75 168 1.0 4.0 0.00 0.00 0.00 77 1021.8
20260830164004 75 161 1.0 4.0 0.00 0.00 0.00 82 1021.9
20260830163504 76 170 1.0 4.0 0.00 0.00 0.00 78 1021.9
20260830163004 76 172 1.0 4.0 0.00 0.00 0.00 76 1022.0
20260830162504 76 173 1.0 6.0 0.00 0.00 0.00 77 1022.1
20260830162004 76 184 1.0 6.0 0.00 0.00 0.00 77 1022.1
20260830161504 76 168 1.0 7.0 0.00 0.00 0.00 76 1022.2
20260830161004 76 163 1.0 7.0 0.00 0.00 0.00 77 1022.1
20260830160504 75 203 1.0 3.0 0.00 0.00 0.00 78 1022.2
20260830160004 75 214 1.0 6.0 0.00 0.00 0.00 80 1022.2
20260830155504 74 194 1.0 6.0 0.00 0.00 0.00 80 1022.2
20260830155004 74 171 1.0 6.0 0.00 0.00 0.00 79 1022.3
20260830154504 73 164 1.0 9.0 0.00 0.00 0.00 79 1022.4
20260830154004 73 183 1.0 9.0 0.00 0.00 0.00 81 1022.3